McCall, ID

3:45 AM MST on December 15, 2017 (GMT -0700)
McCall

Weather History for KMYL - March, 2015

Change the Weather History Date:

Tuesday, March 24, 2015

  Actual Average Record
Temperature  
Mean Temperature 33 °F 31 °F  
Max Temperature 40 °F 42 °F 59 °F (1939)
Min Temperature 25 °F 21 °F -2 °F (1965)
Degree Days  
Heating Degree Days 32 34  
Month to date heating degree days 657 884  
Since 1 July heating degree days 6028 7559  
Cooling Degree Days 0 0  
Month to date cooling degree days 0 0  
Year to date cooling degree days 0 0  
Moisture  
Dew Point 28 °F    
Average Humidity 78    
Maximum Humidity 92    
Minimum Humidity 64    
Precipitation  
Precipitation 0.12 in 0.07 in 0.65 in (1938)
Month to date precipitation 1.65 1.60  
Year to date precipitation 5.84 5.07  
Sea Level Pressure  
Sea Level Pressure 30.01 in    
Wind  
Wind Speed 7 mph (SSE)    
Max Wind Speed 20 mph    
Max Gust Speed 28 mph    
Visibility 6 miles    
Events Snow    
T = Trace of Precipitation, MM = Missing Value Source: NWS Daily Summary

Daily Weather History Graph

Daily Weather History Graph

Search for Another Location

Airport or City:

Trip Planner

Search our weather history database for the weather conditions in past years. The results will help you decide how hot, cold, wet, or windy it might be!

Date:

Astronomy

Mar. 24, 2015 Rise Set
Actual Time 7:40 AM MDT 8:01 PM MDT
Civil Twilight 7:11 AM MDT 8:31 PM MDT
Nautical Twilight 6:36 AM MDT 9:05 PM MDT
Astronomical Twilight 6:01 AM MDT 9:41 PM MDT
Moon 10:30 AM MDT (3/24) 12:20 AM MDT (3/24)
Length of Visible Light 13h 20m
Length of Day
12h 21m
Waxing Crescent, 24% of the Moon is Illuminated
Mar 24
Waxing Crescent
Mar 27
First Quarter
Apr 4
Full
Apr 11
Last Quarter
Apr 18
New

Hourly Weather History & Observations

Time (MDT) Temp. Windchill Dew Point Humidity Pressure Visibility Wind Dir Wind Speed Gust Speed Precip Events Conditions
12:09 AM 27.0 °F - 25.0 °F 92% 30.01 in 4.0 mi Calm Calm - N/A   Clear
12:19 AM 28.0 °F - 26.1 °F 92% 30.01 in 10.0 mi Calm Calm - N/A   Partly Cloudy
12:51 AM 28.0 °F - 27.0 °F 96% 30.08 in 8.0 mi Calm Calm - N/A   Mostly Cloudy
1:51 AM 28.9 °F 25.2 °F 27.0 °F 92% 30.05 in 10.0 mi NW 3.5 mph - N/A   Overcast
2:34 AM 28.9 °F 25.2 °F 27.0 °F 92% 29.98 in 5.0 mi East 3.5 mph - 0.00 in Snow Light Snow
2:41 AM 30.0 °F 25.2 °F 27.0 °F 88% 29.98 in 5.0 mi ESE 4.6 mph - 0.00 in Snow Light Snow
2:51 AM 30.0 °F 23.2 °F 28.0 °F 92% 30.04 in 3.0 mi SE 6.9 mph - 0.00 in Snow Light Snow
3:01 AM 30.0 °F 23.2 °F 28.0 °F 92% 29.97 in 3.0 mi SSE 6.9 mph - 0.01 in Snow Light Snow
3:08 AM 30.0 °F 24.1 °F 28.0 °F 92% 29.97 in 3.0 mi SSE 5.8 mph - 0.01 in Snow Light Snow
3:17 AM 30.0 °F 25.2 °F 28.0 °F 92% 29.96 in 3.0 mi SSE 4.6 mph - 0.01 in Snow Light Snow
3:30 AM 30.0 °F 25.2 °F 28.0 °F 92% 29.95 in 2.5 mi SE 4.6 mph - 0.01 in Snow Light Snow
3:39 AM 30.0 °F 24.1 °F 28.0 °F 92% 29.95 in 3.0 mi SE 5.8 mph - 0.01 in Snow Light Snow
3:51 AM 30.0 °F 25.2 °F 28.0 °F 92% 30.00 in 4.0 mi SE 4.6 mph - 0.01 in Snow Light Snow
4:01 AM 30.0 °F 25.2 °F 28.0 °F 92% 29.94 in 2.5 mi SE 4.6 mph - 0.00 in Snow Light Snow
4:06 AM 30.0 °F 25.2 °F 28.0 °F 92% 29.93 in 1.8 mi SE 4.6 mph - 0.01 in Snow Light Snow
4:14 AM 30.0 °F 24.1 °F 28.0 °F 92% 29.93 in 2.0 mi SE 5.8 mph - 0.01 in Snow Light Snow
4:21 AM 30.0 °F 22.4 °F 28.0 °F 92% 29.92 in 1.5 mi SE 8.1 mph - 0.01 in Snow Light Snow
4:51 AM 30.9 °F 22.2 °F 28.9 °F 92% 29.98 in 1.8 mi SE 10.4 mph - 0.02 in Snow Light Snow
5:15 AM 30.9 °F 24.3 °F 28.9 °F 92% 29.90 in 1.2 mi SE 6.9 mph - 0.02 in Snow Light Snow
5:22 AM 30.9 °F 22.8 °F 28.9 °F 92% 29.90 in 1.5 mi SSE 9.2 mph - 0.02 in Snow Light Snow
5:48 AM 30.2 °F 21.3 °F 28.4 °F 93% 29.89 in 1.0 mi SSE 10.4 mph - 0.03 in Snow Light Snow
5:51 AM 30.9 °F 21.7 °F 28.9 °F 92% 29.95 in 1.0 mi SSE 11.5 mph - 0.04 in Snow Light Snow
5:56 AM 30.9 °F 21.7 °F 28.9 °F 92% 29.89 in 0.8 mi SSE 11.5 mph - 0.00 in Snow Light Snow
6:06 AM 30.9 °F 20.2 °F 28.9 °F 92% 29.89 in 1.0 mi South 15.0 mph - 0.01 in Snow Light Snow
6:12 AM 30.9 °F 20.7 °F 28.9 °F 92% 29.89 in 1.5 mi SSE 13.8 mph - 0.01 in Snow Light Snow
6:20 AM 30.9 °F 20.7 °F 28.9 °F 92% 29.89 in 1.8 mi SSE 13.8 mph - 0.01 in Snow Light Snow
6:38 AM 30.9 °F 20.7 °F 28.9 °F 92% 29.88 in 2.0 mi SSE 13.8 mph - 0.02 in Snow Light Snow
6:51 AM 30.9 °F 20.2 °F 28.9 °F 92% 29.94 in 5.0 mi SSE 15.0 mph - 0.02 in Snow Light Snow
6:59 AM 30.9 °F 20.7 °F 28.9 °F 92% 29.89 in 10.0 mi SSE 13.8 mph - 0.00 in   Overcast
7:51 AM 30.9 °F 21.2 °F 28.9 °F 92% 29.94 in 9.0 mi SSE 12.7 mph - 0.00 in Snow Light Snow
8:08 AM 30.9 °F 22.8 °F 30.0 °F 96% 29.88 in 2.5 mi SSE 9.2 mph - 0.00 in Snow Light Snow
8:14 AM 30.9 °F 26.2 °F 30.0 °F 96% 29.89 in 6.0 mi South 4.6 mph - 0.00 in Snow Light Snow
8:23 AM 30.9 °F - 30.0 °F 96% 29.89 in 10.0 mi Calm Calm - 0.00 in   Overcast
8:51 AM 32.0 °F 24.2 °F 28.9 °F 88% 29.96 in 10.0 mi SSE 9.2 mph - 0.00 in   Overcast
9:22 AM 32.0 °F 24.8 °F 30.0 °F 92% 29.90 in 2.0 mi SSE 8.1 mph - 0.00 in Snow Light Snow
9:28 AM 32.0 °F 24.8 °F 30.0 °F 92% 29.90 in 1.5 mi SSE 8.1 mph - 0.00 in Snow Light Snow
9:32 AM 32.0 °F 25.6 °F 30.0 °F 92% 29.90 in 3.0 mi SSE 6.9 mph - 0.00 in Snow Light Snow
9:42 AM 33.1 °F 25.5 °F 28.9 °F 85% 29.90 in 9.0 mi South 9.2 mph - 0.01 in   Mostly Cloudy
9:51 AM 32.0 °F 24.2 °F 28.9 °F 88% 29.99 in 10.0 mi South 9.2 mph - 0.01 in   Mostly Cloudy
10:20 AM 33.1 °F 26.9 °F 30.0 °F 89% 29.92 in 2.5 mi SW 6.9 mph - 0.00 in Snow Light Snow
10:25 AM 33.1 °F 27.7 °F 30.0 °F 89% 29.92 in 3.0 mi SSW 5.8 mph - 0.00 in Snow Light Snow
10:33 AM 34.0 °F 29.8 °F 30.0 °F 85% 29.92 in 9.0 mi SSW 4.6 mph - 0.00 in   Mostly Cloudy
10:51 AM 35.1 °F 27.9 °F 28.0 °F 76% 29.99 in 10.0 mi WSW 9.2 mph - 0.00 in   Partly Cloudy
11:51 AM 36.0 °F 28.5 °F 28.0 °F 73% 30.01 in 10.0 mi WSW 10.4 mph - N/A   Overcast
12:51 PM 35.1 °F 25.9 °F 27.0 °F 72% 30.03 in 10.0 mi WSW 13.8 mph 20.7 mph 0.00 in   Scattered Clouds
1:51 PM 37.0 °F 30.4 °F 27.0 °F 67% 30.05 in 10.0 mi WSW 9.2 mph 21.9 mph N/A   Scattered Clouds
2:51 PM 39.0 °F 31.0 °F 28.0 °F 65% 30.06 in 10.0 mi WSW 13.8 mph 20.7 mph N/A   Mostly Cloudy
3:12 PM 37.0 °F 30.4 °F 27.0 °F 67% 30.02 in 9.0 mi SSW 9.2 mph 21.9 mph 0.00 in Snow Light Snow
3:20 PM 39.0 °F 31.8 °F 28.0 °F 65% 30.02 in 9.0 mi WSW 11.5 mph - 0.00 in   Overcast
3:51 PM 37.0 °F 29.8 °F 26.1 °F 65% 30.08 in 10.0 mi WSW 10.4 mph - 0.00 in   Overcast
4:51 PM 35.1 °F 27.9 °F 28.9 °F 78% 30.12 in 10.0 mi North 9.2 mph - 0.00 in   Overcast
5:03 PM 34.0 °F 25.5 °F 30.0 °F 85% 30.07 in 2.5 mi North 11.5 mph - 0.00 in Snow Light Snow
5:06 PM 33.1 °F 25.5 °F 30.0 °F 89% 30.07 in 1.0 mi North 9.2 mph - 0.00 in Snow Light Snow
5:08 PM 33.1 °F 26.9 °F 30.0 °F 89% 30.07 in 0.8 mi North 6.9 mph - 0.01 in Snow Light Snow
5:18 PM 33.1 °F 28.7 °F 30.0 °F 89% 30.06 in 1.0 mi North 4.6 mph - 0.02 in Snow Light Snow
5:22 PM 33.1 °F 30.0 °F 30.0 °F 89% 30.06 in 2.0 mi NNE 3.5 mph - 0.02 in Snow Light Snow
5:28 PM 33.1 °F - 30.0 °F 89% 30.06 in 6.0 mi Calm Calm - 0.02 in Snow Light Snow
5:39 PM 33.1 °F - 30.0 °F 89% 30.07 in 10.0 mi Calm Calm - 0.02 in   Scattered Clouds
5:51 PM 34.0 °F - 28.9 °F 82% 30.14 in 10.0 mi Calm Calm - 0.02 in   Mostly Cloudy
6:13 PM 33.1 °F 28.7 °F 28.0 °F 82% 30.08 in 5.0 mi SW 4.6 mph - 0.00 in Snow Light Snow
6:51 PM 33.1 °F 27.7 °F 28.0 °F 82% 30.16 in 10.0 mi SSW 5.8 mph - 0.00 in   Overcast
7:51 PM 30.9 °F 27.5 °F 28.0 °F 89% 30.19 in 10.0 mi SE 3.5 mph - 0.00 in   Scattered Clouds
8:51 PM 30.9 °F - 28.0 °F 89% 30.22 in 10.0 mi Calm Calm - N/A   Partly Cloudy
9:51 PM 28.9 °F - 27.0 °F 92% 30.25 in 10.0 mi Calm Calm - N/A   Clear
10:51 PM 28.0 °F 22.8 °F 26.1 °F 92% 30.27 in 10.0 mi ENE 4.6 mph - N/A   Clear
10:57 PM 28.0 °F - 26.1 °F 92% 30.20 in 10.0 mi Calm Calm - N/A   Scattered Clouds
11:01 PM 28.0 °F - 27.0 °F 96% 30.20 in 10.0 mi Calm Calm - N/A   Mostly Cloudy
11:08 PM 28.9 °F - 27.0 °F 92% 30.20 in 10.0 mi Calm Calm - N/A   Mostly Cloudy
11:26 PM 28.0 °F - 25.0 °F 88% 30.20 in 10.0 mi Calm Calm - N/A   Scattered Clouds
11:51 PM 28.0 °F 24.2 °F 26.1 °F 92% 30.29 in 10.0 mi North 3.5 mph - N/A   Clear